Estación de Pinto
Ultimos registro cada 15 minutos 49
| N° | Estación | Fecha / Hora | Temperatura | Humedad | Lluvia | Velocidad | Dirección | Radiación | Presion |
| 49 | Pinto | 01-09-2026 12:00 | 15,8 | 61 | 0 | 0,9 | 271 | 670 | 1021,9 |
| 48 | Pinto | 01-09-2026 11:45 | 15,8 | 61 | 0 | 0,9 | 271 | 670 | 1021,9 |
| 47 | Pinto | 01-09-2026 11:30 | 15,6 | 65 | 0 | 0,9 | 244 | 652 | 1021,9 |
| 46 | Pinto | 01-09-2026 11:15 | 15,2 | 66 | 0 | 0 | 244 | 633 | 1021,8 |
| 45 | Pinto | 01-09-2026 11:00 | 14,3 | 71 | 0 | 0 | 244 | 580 | 1022 |
| 44 | Pinto | 01-09-2026 10:45 | 14,3 | 71 | 0 | 0 | 244 | 580 | 1022 |
| 43 | Pinto | 01-09-2026 10:30 | 13,7 | 71 | 0 | 0 | 243 | 552 | 1022,1 |
| 42 | Pinto | 01-09-2026 10:15 | 13,4 | 73 | 0 | 0 | 243 | 519 | 1022,5 |
| 41 | Pinto | 01-09-2026 10:00 | 12,7 | 77 | 0 | 0 | 243 | 515 | 1022,5 |
| 40 | Pinto | 01-09-2026 09:45 | 12,7 | 77 | 0 | 0 | 243 | 515 | 1022,5 |
| 39 | Pinto | 01-09-2026 09:30 | 12,8 | 76 | 0 | 0,9 | 243 | 380 | 1022,4 |
| 38 | Pinto | 01-09-2026 09:15 | 13,2 | 77 | 0 | 0 | 243 | 151 | 1022,3 |
| 37 | Pinto | 01-09-2026 09:00 | 11,6 | 80 | 0 | 0 | 243 | 329 | 1021,5 |
| 36 | Pinto | 01-09-2026 08:45 | 11,6 | 80 | 0 | 0 | 243 | 329 | 1021,5 |
| 35 | Pinto | 01-09-2026 08:30 | 10,6 | 83 | 0 | 0 | 243 | 169 | 1021,4 |
| 34 | Pinto | 01-09-2026 08:15 | 9,6 | 85 | 0 | 0 | 243 | 111 | 1021,1 |
| 33 | Pinto | 01-09-2026 08:00 | 8,3 | 87 | 0 | 0 | 253 | 46 | 1021,1 |
| 32 | Pinto | 01-09-2026 07:45 | 8,3 | 87 | 0 | 0 | 253 | 46 | 1021,1 |
| 31 | Pinto | 01-09-2026 07:30 | 8,1 | 88 | 0 | 0 | 253 | 21 | 1021,1 |
| 30 | Pinto | 01-09-2026 07:15 | 7,7 | 89 | 0 | 0 | 255 | 9 | 1021,1 |
| 29 | Pinto | 01-09-2026 07:00 | 6,8 | 91 | 0 | 0 | 256 | 0 | 1021,4 |
| 28 | Pinto | 01-09-2026 06:45 | 6,8 | 91 | 0 | 0 | 256 | 0 | 1021,4 |
| 27 | Pinto | 01-09-2026 06:30 | 6,6 | 91 | 0 | 0 | 256 | 0 | 1021,4 |
| 26 | Pinto | 01-09-2026 06:15 | 6,4 | 91 | 0 | 0 | 256 | 0 | 1021,4 |
| 25 | Pinto | 01-09-2026 06:00 | 6,8 | 90 | 0 | 0 | 256 | 0 | 1021,2 |
| 24 | Pinto | 01-09-2026 05:45 | 6,8 | 90 | 0 | 0 | 256 | 0 | 1021,2 |
| 23 | Pinto | 01-09-2026 05:30 | 6,9 | 89 | 0 | 0 | 256 | 0 | 1021,1 |
| 22 | Pinto | 01-09-2026 05:15 | 7,3 | 89 | 0 | 0 | 256 | 0 | 1020,9 |
| 21 | Pinto | 01-09-2026 05:00 | 7,3 | 91 | 0 | 0 | 256 | 0 | 1021,1 |
| 20 | Pinto | 01-09-2026 04:45 | 7,3 | 91 | 0 | 0 | 256 | 0 | 1021,1 |
| 19 | Pinto | 01-09-2026 04:30 | 7,2 | 91 | 0 | 0 | 256 | 0 | 1021,1 |
| 18 | Pinto | 01-09-2026 04:15 | 7,2 | 90 | 0 | 0 | 256 | 0 | 1021,1 |
| 17 | Pinto | 01-09-2026 04:00 | 7,3 | 89 | 0 | 0 | 256 | 0 | 1021 |
| 16 | Pinto | 01-09-2026 03:45 | 7,3 | 89 | 0 | 0 | 256 | 0 | 1021 |
| 15 | Pinto | 01-09-2026 03:30 | 7,4 | 88 | 0 | 0 | 256 | 0 | 1021,1 |
| 14 | Pinto | 01-09-2026 03:15 | 7,8 | 87 | 0 | 0 | 256 | 0 | 1021,2 |
| 13 | Pinto | 01-09-2026 03:00 | 7,7 | 88 | 0 | 0 | 256 | 0 | 1021,3 |
| 12 | Pinto | 01-09-2026 02:45 | 7,7 | 88 | 0 | 0 | 256 | 0 | 1021,3 |
| 11 | Pinto | 01-09-2026 02:30 | 7,7 | 88 | 0 | 0 | 256 | 0 | 1021,6 |
| 10 | Pinto | 01-09-2026 02:15 | 7,8 | 88 | 0 | 0 | 256 | 0 | 1021,8 |
| 9 | Pinto | 01-09-2026 02:00 | 7,1 | 91 | 0 | 0 | 257 | 0 | 1022,1 |
| 8 | Pinto | 01-09-2026 01:45 | 7,1 | 91 | 0 | 0 | 257 | 0 | 1022,1 |
| 7 | Pinto | 01-09-2026 01:30 | 6,9 | 92 | 0 | 0 | 257 | 0 | 1022,2 |
| 6 | Pinto | 01-09-2026 01:15 | 6,8 | 92 | 0 | 0 | 257 | 0 | 1022,2 |
| 5 | Pinto | 01-09-2026 01:00 | 6,8 | 92 | 0 | 0 | 256 | 0 | 1022,4 |
| 4 | Pinto | 01-09-2026 00:45 | 6,8 | 92 | 0 | 0 | 256 | 0 | 1022,4 |
| 3 | Pinto | 01-09-2026 00:30 | 6,7 | 91 | 0 | 0 | 256 | 0 | 1022,4 |
| 2 | Pinto | 01-09-2026 00:15 | 6,9 | 91 | 0 | 0 | 256 | 0 | 1022,7 |
| 1 | Pinto | 01-09-2026 00:00 | 7,2 | 90 | 0 | 0 | 257 | 0 | 1023 |